User: anonymous   Login
Location: Unspecified
(0.0000°N, 0.0000°E)
Time: 03:34:36
(UTC+00:00)
Language:

Kosmos-2233 - Orbit

View from above orbital plane
View from above orbital plane
View from above satellite
View from above satellite

Ground track
Ground track

The orbit data is extracted from the following two-line orbital elements,

1 22487U 93008A   17112.64416220 +.00000059 +00000-0 +44656-4 0  9993
2 22487 082.9426 141.5643 0039636 094.0365 025.6491 13.75758849210393
Epoch (UTC): 22 April 2017 15:27:35
Eccentricity: 0.0039636
inclination: 82.9426°
perigee height: 950 km
apogee height: 1008 km
right ascension of ascending node: 141.5643°
argument of perigee: 94.0365°
revolutions per day: 13.75758849
mean anomaly at epoch: 25.6491°
orbit number at epoch: 21039

The dashed part of the orbit path shows where the satellite is in the earth's shadow,  

DLR